Tracking 19570 objects as of 21-Feb-2019
HD Live streaming from Space Station
objects crossing your sky now

COSMOS 1823 DEB

Track COSMOS 1823 DEB now!
10-day predictions


NORAD ID: 39808
Int'l Code: 1987-020EG
Perigee: 1,467.7 km
Apogee: 1,531.5 km
Inclination: 73.6 °
Period: 115.8 minutes
Semi major axis: 7870 km
RCS: 0.0205 m2 (small)
Launch date: February 20, 1987
Source: Commonwealth of Independent States (former USSR) (CIS)
Launch site: PLESETSK MISSILE AND SPACE COMPLEX (PKMTR)

Note: This is SATELLITE DEBRIS
aabbcc
Your satellite tracking list
Your tracking list is empty




NASA's NSSDC Master Catalog

Two Line Element Set (TLE):
1 39808U 87020EG  19042.36608997  .00000125  00000-0  10162-2 0  9999
2 39808  73.6177  56.4202 0040507  83.7490 337.2806 12.43347429723917
Source of the keplerian elements: AFSPC